Content
SEND FEEDBACK

Daily
Averages
Monthly
Summary
United States of America

TOMBSTONE, ARIZONA


Home > North America > United States > Arizona
Elevation: 4392 feet     Latitude: 31 43N     Longitude: 110 04W

WEATHER
 
SELECT A DAY
Number of Records: 122,106;   Date Range: 1/3/95 - 8/12/14
 
SHARE

PRINT THIS DATA

[ ← Previous Day ]
WEATHER ALMANAC - APRIL 27, 2013
[ Next Day → ]
[ °C ]   °F
Weather ElementAverageHighLow
Temperature67 °F82 °F (2:56 pm) (4:00 am)
Dewpoint13.7 °F21 °F (6:56 am) (7:00 pm)
Humidity13.2 %24 % (5:56 am)6 % (2:56 pm)
Barometer28.73 in30.19 in (9:56 am) (7:00 pm)
Wind Speed8.3 mph12.7 mph (5:56 pm)
Wind Gust17.3 mph (5:56 pm)
Weather ElementAverage
Visibility10 mi
Wind DirectionSSW (203.8 °)

Weather ElementTotal
Precipitation---
Heating Degree Days24 (Base 65)
Averaged from 24 records on April 27, 2013
WEATHER CONDITIONS BREAKOUT
WIND DIRECTION BREAKOUT
WEATHER BY HOUR - APRIL 27, 2013
[ °C ]   °F
Local TimeTemperatureDewpointHumidityBarometerVisibilityWind DirectionWind SpeedGust SpeedPrecipitationEventsConditions
1:56 AM59.0 °F19.9 °F22 %30.04 in10.0 miWSW (250°)10.4 mphClear
2:56 AM57.9 °F19.0 °F22 %30.03 in10.0 miWSW (240°)9.2 mphClear
3:56 AM57.9 °F19.0 °F22 %30.02 in10.0 miSW (220°)9.2 mphClear
4:00 AM0.0 °F0.0 °FNorth
4:56 AM57.0 °F19.0 °F23 %30.02 in10.0 miSW (220°)8.1 mphClear
5:56 AM55.0 °F19.0 °F24 %30.04 in10.0 miSSW (210°)3.5 mphClear
6:56 AM64.0 °F21.0 °F19 %30.04 in10.0 miWSW (250°)4.6 mphClear
7:56 AM68.0 °F19.9 °F16 %30.06 in10.0 miCalmClear
8:56 AM70.0 °F19.9 °F15 %30.05 in10.0 miNNE (30°)6.9 mphClear
9:56 AM73.4 °F19.4 °F13 %30.19 in10.0 miVariable4.6 mphClear
10:56 AM75.0 °F15.1 °F10 %30.03 in10.0 miNE (50°)5.8 mphClear
11:56 AM77.0 °F10.9 °F8 %29.99 in10.0 miSouth (180°)5.8 mphClear
12:56 PM80.1 °F10.9 °F7 %29.96 in10.0 miSouth (180°)6.9 mphClear
1:56 PM79.0 °F9.0 °F7 %29.95 in10.0 miWest (260°)3.5 mphClear
2:56 PM82.0 °F7.0 °F6 %29.91 in10.0 miWest (280°)11.5 mphClear
3:56 PM81.0 °F9.0 °F6 %29.89 in10.0 miWNW (290°)10.4 mph16.1 mphClear
4:56 PM81.0 °F9.0 °F6 %29.89 in10.0 miWNW (300°)8.1 mphClear
5:56 PM79.0 °F6.1 °F6 %29.90 in10.0 miNNW (340°)12.7 mph17.3 mphClear
6:56 PM75.9 °F9.0 °F8 %29.89 in10.0 miNW (310°)9.2 mphClear
7:56 PM69.1 °F10.9 °F11 %29.91 in10.0 miWSW (250°)11.5 mphClear
8:56 PM68.0 °F10.4 °F11 %29.93 in10.0 miWSW (250°)12.7 mphClear
9:56 PM66.9 °F14.0 °F13 %29.93 in10.0 miWest (260°)12.7 mphClear
10:56 PM66.0 °F15.1 °F14 %29.93 in10.0 miWest (260°)11.5 mphClear
11:56 PM66.0 °F16.0 °F15 %29.92 in10.0 miWest (260°)11.5 mphClear
Hourly data recorded from KFHU, located miles away from Tombstone, Arizona







STORIES FROM OUR PARTNERS